Location: Kitt Peak
(31.9639°N, 111.5992°W)
Time: 15:16:19
(UTC-07:00)

SRMSAT - Pass Details

Date: 15 December 2025
Orbit: 846 x 863 km, 20.0° (Epoch: 13 January)

Event Time Altitude Azimuth Distance (km) Brightness Sun altitude
Exits shadow 06:33:09 - 245° (WSW) 3,400 ? -9.8°
Rises 06:33:10 0° 245° (WSW) 3,397 ? -9.8°
Reaches altitude 10° 06:36:08 10° 232° (SW) 2,464 ? -9.2°
Maximum altitude 06:40:53 25° 179° (S) 1,642 ? -8.3°
Drops below altitude 10° 06:45:39 10° 125° (SE) 2,474 ? -7.4°
Sets 06:48:39 0° 113° (ESE) 3,413 ? -6.8°
